Regional Weather Roundup
Issued by NWS

Home | Current Version | Previous Version | Text Only | Print | Product List | Glossary On
Versions: 1 2 3 4 5 6 7 8 9 10 11 12 13 14 15 16 17 18 19 20 21 22 23 24 25 26 27 28 29 30 31 32 33 34 35 36 37 38 39 40 41 42 43 44 45 46 47 48 49 50
000
ASPQ40 PGUM 201812
RWRPQ
WEATHER ROUNDUP FOR THE MARIANAS AND MICRONESIA
NATIONAL WEATHER SERVICE TIYAN GU
400 AM CHST TUE OCT 21 2014

GUZ001>004-201900-
MARIANA ISLANDS-

CITY           SKY/WX    TMP DP  RH WIND       PRES   REMARKS
GUAM AIRPORT   CLEAR     79  75  89 NE5       29.82S
ANDERSEN AFB   PTCLDY    79  73  83 NE7       29.82S
ROTA AIRPORT   NOT AVBL
TINIAN AP      NOT AVBL
SAIPAN AP      CLEAR     77  73  88 N5        29.81F

$$

PMZ161-201900-
REPUBLIC OF PALAU-

CITY           SKY/WX    TMP DP  RH WIND       PRES   REMARKS
KOROR AP       NOT AVBL
KOROR WSO      PTCLDY    81  75  83 CALM      29.84F

$$

PMZ171>174-201900-
FEDERATED STATES OF MICRONESIA-

CITY           SKY/WX    TMP DP  RH WIND       PRES   REMARKS
YAP AIRPORT    CLOUDY    79  77  94 VRB6      29.82F
CHUUK AP       CLOUDY    79  75  89 VRB5      29.78S
POHNPEI AP     NOT AVBL
POHNPEI WSO    PTCLDY    75  75 100 SE3       29.83R
KOSRAE AP      NOT AVBL

$$

PMZ181-201900-
REPUBLIC OF THE MARSHALL ISLANDS-

CITY           SKY/WX    TMP DP  RH WIND       PRES   REMARKS
KWAJALEIN AP   CLEAR     82  75  78 E7        29.80R
MAJURO AP      NOT AVBL
MAJURO WSO     LGT RAIN  82  79  89 SE8       29.80R HX  93

$$



USA.gov is the U.S. government's official web portal to all federal, state and local government web resources and services.